CZ-6A DEB, 60692

Orbit data source: Space-Track

CZ-6A DEB, 60692 is space debris in LEO originally from a launch on Tue, 06 Aug 2024 UTC launched from the Taiyaun Space Center, China (TSC). Debris objects in space refer to the collection of defunct objects orbiting the Earth. Examples of debris include non-operational satellites, rocket bodies, and fragments generated from explosions, collisions, or faulty payload assembly.

Loading next visibility...
Identifier
60692, 2024-140CV
Orbit
LEO
Country
Flag of CNCN / PRC
Related business
Manufacturer
SAST
Mission
Spacecraft
Bus & Motor
Unknown
Mass
Unknown
Launch date (UTC)
2024-08-06 (2 years ago)
Launch vehicle
Unknown
Launch site
Taiyaun Space Center, China (TSC)
Object type
Payload
Rocket body
Debris
Shape & HBR
Unknown shape, 0.4 m
Radar Cross Section
Medium (>0.1 m² and <1 m²)

Expand to show TLE details & history
Last TLE update: 16 hours ago

TLE from 16 hours ago
0 CZ-6A DEB
1 60692U 24140CV  26171.28863184  .00001248  00000-0  35582-3 0  9992
2 60692  88.9932 271.3479 0125207   6.5281 353.7514 14.40123531 97701
Epoch: 2026-06-20T06:55Z
TLE epoch observation values (Epoch: 2026-06-20T06:55:37.790Z)
Latitude
-0.00007°
Longitude
-101.06496°
Altitude
672.347 km
Speed
7.567 km/s
True Right ascension
18h 05m 23s
True Declination
0° 00' 00"
Sunlit
Object was in full shadow at epoch
Visualization orbit readout
Latitude
Unknown
Longitude
Unknown
Altitude
Unknown
Speed
Unknown
Apparent Right ascension
Unknown
Apparent Declination
Unknown
Sunlit
N/A
Visualization observer readout
Local Sidereal Time
10:18:37
Azimuth
Unknown
Elevation
Unknown
Doppler factor
Unknown
Orbital elements
Apogee altitude
844.324 km
Perigee altitude
665.7 km
Semi-major axis
7,133.149 km
Eccentricity
0.01252
Inclination
88.9932°
RAAN
271.3479°
Arg. of periapsis
6.5281°
True anomaly
353.59277°
Mean anomaly
353.7514°
Eccentric anomaly
353.67233°
Mean motion
3.60264 °/min
Orbital period
99.93 mins
BSTAR
0.00035582
Loading maneuver chart data...
Computing Atmospheric mass density...
Loading historical data...
Loading historical data...
Loading historical data...
Loading historical data...
Loading historical data...
Loading historical data...
Loading historical data...

Documentation

Showing up to 5 results
|